[[{"header":{"parameterUnit":"m.s-1","parameterCategory":1,"la1":30.2991,"la2":30.254,"lo1":-89.0895,"lo2":-89.0444,"dy":0.0017,"dx":0.0017,"nx":28,"ny":28,"refTime":"2025-08-04T21:00:00:Z","depth":0,"parameterNumber":2,"parameterNumberName":"U-component_of_WINDS"},"data":[0,0,0,0,0,0,0,0,0,0,0,0,0,0,0,0,0,0,0,0,0,0,0,0,0,0,0,0,0,0,0,0,0,0,0,0,0,0,0,0,0,0,0,0,0,0,0,0,0,0,0,0,0,0,0,0,0,0,-2.7053,-2.7053,0,-2.7077,-2.7078,-2.7078,-2.7084,-2.7084,-2.7083,-2.7083,-2.7106,-2.7106,-2.7107,0,0,0,0,0,0,0,0,0,0,0,0,0,-2.7007,-2.7008,-2.7053,-2.7053,-2.7053,-2.7077,-2.7078,-2.7078,-2.7084,-2.7084,-2.7083,-2.7083,-2.7105,-2.7106,-2.7107,0,0,0,0,0,0,0,0,0,0,0,0,0,-2.7029,-2.7008,-2.7053,-2.7059,-2.706,-2.7077,-2.7078,-2.7078,-2.7084,-2.7084,-2.7083,-2.7083,-2.7105,-2.7106,-2.7107,-2.7119,0,0,-2.7111,-2.7111,0,0,0,0,0,0,0,0,-2.7027,-2.703,-2.7058,-2.7059,-2.706,-2.7077,-2.707,-2.7092,-2.7084,-2.7075,-2.7083,-2.7083,-2.7096,-2.7098,-2.7103,-2.712,-2.7121,-2.7111,-2.7112,-2.7112,-2.7112,0,0,0,0,0,0,0,-2.7026,-2.7029,-2.7062,-2.7058,-2.7059,-2.706,-2.7063,-2.7074,-2.7086,-2.7075,-2.7076,-2.7079,-2.7097,-2.7102,-2.7104,-2.7121,-2.7111,-2.7112,-2.7112,-2.7113,-2.7149,-2.7149,0,0,0,0,0,0,-2.7024,-2.7028,-2.7062,-2.7063,-2.7043,-2.7061,-2.7064,-2.7072,-2.7086,-2.7088,-2.7079,-2.7079,-2.71,-2.7102,-2.7104,-2.7119,-2.7112,-2.7113,-2.7114,-2.7149,-2.7149,-2.7149,0,0,0,0,0,0,-2.7023,-2.7027,-2.7061,-2.7046,-2.705,-2.7062,-2.7071,-2.7072,-2.7078,-2.7089,-2.7091,-2.7083,-2.71,-2.7103,-2.7116,-2.712,-2.7114,-2.7115,-2.7148,-2.7149,-2.7149,-2.7148,0,0,0,0,0,0,-2.7021,-2.7026,-2.7032,-2.7046,-2.7051,-2.7072,-2.7071,-2.7073,-2.708,-2.708,-2.7093,-2.7095,-2.71,-2.7114,-2.7117,-2.7121,-2.7115,-2.7148,-2.7148,-2.7149,-2.7148,-2.7149,-2.7149,0,0,0,0,0,-2.702,-2.703,-2.7032,-2.7036,-2.7058,-2.7072,-2.7075,-2.7082,-2.7081,-2.7085,-2.7093,-2.7094,-2.7119,-2.7115,-2.7118,-2.7123,-2.7148,-2.7148,-2.7149,-2.7148,-2.7148,-2.7149,0,0,0,0,0,0,-2.7015,-2.7032,-2.7034,-2.705,-2.706,-2.7073,-2.708,-2.7083,-2.7093,-2.7092,-2.71,-2.7102,-2.7114,-2.712,-2.7115,-2.7135,-2.7133,-2.7134,-2.7131,-2.7132,-2.7133,-2.7131,-2.7116,0,0,0,0,0,-2.7016,-2.7027,-2.7041,-2.7053,-2.7058,-2.7068,-2.7074,-2.7079,-2.7089,-2.7093,-2.7101,-2.711,-2.712,-2.7126,-2.7136,-2.7149,-2.7151,-2.7154,-2.7154,-2.7155,-2.7156,-2.7162,-2.7164,-2.7151,-2.7151,-2.7151,0,0,-2.7017,-2.7028,-2.7034,-2.7052,-2.706,-2.7071,-2.7071,-2.7083,-2.709,-2.7095,-2.7107,-2.7113,-2.7124,-2.7137,-2.7143,-2.7142,-2.716,-2.7156,-2.7156,-2.7157,-2.7163,-2.7164,-2.7165,-2.7152,-2.7152,-2.7152,0,0,-2.7025,-2.7035,-2.7046,-2.7054,-2.7067,-2.7074,-2.7077,-2.709,-2.7095,-2.7108,-2.7111,-2.712,-2.7137,-2.7144,-2.715,-2.7161,-2.7162,-2.7163,-2.7166,-2.7173,-2.7174,-2.7175,-2.7178,-2.7179,-2.7164,-2.7164,-2.7164,0,-2.7025,-2.7042,-2.7051,-2.7062,-2.7069,-2.7075,-2.7085,-2.7093,-2.7108,-2.7112,-2.7112,-2.7133,-2.714,-2.7154,-2.7157,-2.7162,-2.7164,-2.7162,-2.7173,-2.7174,-2.7175,-2.7178,-2.718,-2.7164,-2.7164,-2.7164,-2.7164,0,-2.7041,-2.7053,-2.706,-2.7076,-2.7084,-2.7094,-2.7104,-2.7111,-2.7114,-2.7121,-2.7134,-2.7143,-2.7154,-2.7158,-2.7161,-2.7173,-2.7172,-2.7172,-2.717,-2.7176,-2.7179,-2.7181,-2.7164,-2.7164,-2.7164,-2.7164,0,0,-2.7047,-2.7067,-2.7069,-2.7076,-2.7091,-2.71,-2.711,-2.7123,-2.7128,-2.7138,-2.7147,-2.7161,-2.7161,-2.7168,-2.7172,-2.7178,-2.7185,-2.7178,-2.7178,-2.7178,-2.7198,-2.7197,-2.7199,-2.7187,-2.7187,-2.7187,-2.7197,0,-2.7056,-2.7077,-2.7085,-2.7101,-2.7111,-2.7117,-2.7126,-2.7135,-2.7141,-2.715,-2.7157,-2.7167,-2.7167,-2.7171,-2.7177,-2.7183,-2.7189,-2.7183,-2.7194,-2.7194,-2.7191,-2.72,-2.72,-2.7208,-2.7198,-2.7198,-2.7198,0,-2.707,-2.7082,-2.7099,-2.7112,-2.7117,-2.7125,-2.7137,-2.7146,-2.7156,-2.716,-2.7168,-2.7172,-2.7182,-2.718,-2.7194,-2.7189,-2.7194,-2.7198,-2.7198,-2.7199,-2.7196,-2.7201,-2.7211,-2.7212,-2.72,-2.72,-2.72,0,-2.7072,-2.7091,-2.7104,-2.711,-2.7126,-2.7132,-2.7138,-2.7149,-2.7156,-2.7165,-2.717,-2.718,-2.7186,-2.7193,-2.72,-2.7198,-2.7213,-2.7211,-2.7216,-2.7215,-2.7218,-2.7218,-2.7229,-2.7222,-2.7222,-2.7222,-2.7222,0,-2.7081,-2.7092,-2.7105,-2.7113,-2.7125,-2.7133,-2.7144,-2.7151,-2.716,-2.7169,-2.7174,-2.7181,-2.7189,-2.7198,-2.7203,-2.7213,-2.7216,-2.7219,-2.722,-2.7218,-2.7218,-2.7221,-2.722,-2.7222,-2.7222,-2.7222,-2.7222,0,-2.7085,-2.7095,-2.7109,-2.7123,-2.7127,-2.7135,-2.7147,-2.7154,-2.7161,-2.7171,-2.7174,-2.7184,-2.7194,-2.7202,-2.7215,-2.7218,-2.7229,-2.723,-2.7226,-2.7226,-2.723,-2.723,-2.7243,-2.7245,-2.7238,-2.7238,-2.7238,0,-2.709,-2.7099,-2.7114,-2.7121,-2.7128,-2.7138,-2.7146,-2.7154,-2.7161,-2.7174,-2.7179,-2.719,-2.7199,-2.7215,-2.7223,-2.7232,-2.7234,-2.7238,-2.7235,-2.7233,-2.7233,-2.7233,-2.7233,-2.7238,-2.7238,-2.7238,-2.7238,0,-2.7099,-2.7103,-2.7114,-2.7126,-2.7135,-2.7145,-2.7155,-2.716,-2.717,-2.7177,-2.7188,-2.7195,-2.7209,-2.7219,-2.723,-2.7236,-2.7238,-2.7239,-2.7241,-2.7239,-2.7236,-2.7237,-2.7226,-2.7239,-2.7239,-2.7239,-2.7239,-2.7239,-2.7103,-2.7111,-2.7123,-2.7135,-2.7143,-2.7152,-2.716,-2.7168,-2.7177,-2.719,-2.7194,-2.7205,-2.7215,-2.723,-2.7236,-2.7244,-2.7244,-2.7246,-2.7246,-2.7247,-2.7246,-2.7235,-2.7246,-2.7246,-2.7246,-2.7246,-2.7246,0,-2.7111,-2.712,-2.713,-2.7145,-2.7154,-2.7157,-2.7167,-2.7174,-2.7185,-2.7194,-2.7203,-2.7216,-2.7226,-2.7234,-2.7245,-2.7249,-2.7251,-2.7252,-2.7251,-2.7252,-2.7246,-2.7244,-2.725,-2.725,-2.725,-2.725,-2.725,-2.725,-2.7117,-2.713,-2.7135,-2.7152,-2.716,-2.7172,-2.7178,-2.7186,-2.7194,-2.7208,-2.7216,-2.7222,-2.7231,-2.7242,-2.7251,-2.7253,-2.7257,-2.7257,-2.726,-2.7253,-2.7253,-2.7252,-2.725,-2.7258,-2.7258,-2.7265,-2.7265,-2.7265]},{"header":{"parameterUnit":"m.s-1","parameterCategory":1,"la1":30.2991,"la2":30.254,"lo1":-89.0895,"lo2":-89.0444,"dy":0.0017,"dx":0.0017,"nx":28,"ny":28,"refTime":"2025-08-04T21:00:00:Z","depth":0,"parameterNumber":3,"parameterNumberName":"V-component_of_WINDS"},"data":[0,0,0,0,0,0,0,0,0,0,0,0,0,0,0,0,0,0,0,0,0,0,0,0,0,0,0,0,0,0,0,0,0,0,0,0,0,0,0,0,0,0,0,0,0,0,0,0,0,0,0,0,0,0,0,0,0,0,0.3972,0.3973,0,0.4126,0.4127,0.4129,0.4196,0.4196,0.4196,0.4196,0.4354,0.4358,0.4363,0,0,0,0,0,0,0,0,0,0,0,0,0,0.3737,0.3741,0.3971,0.3973,0.3975,0.4125,0.4127,0.413,0.4196,0.4196,0.4196,0.4195,0.4352,0.4358,0.4363,0,0,0,0,0,0,0,0,0,0,0,0,0,0.386,0.3743,0.3971,0.4027,0.4033,0.4125,0.4128,0.413,0.4196,0.4196,0.4196,0.4195,0.4351,0.4357,0.4364,0.4412,0,0,0.4384,0.4387,0,0,0,0,0,0,0,0,0.3853,0.3868,0.4017,0.4023,0.403,0.4141,0.4103,0.4225,0.4196,0.4134,0.4196,0.4195,0.4284,0.4296,0.4325,0.4419,0.4426,0.4385,0.4389,0.4392,0.4393,0,0,0,0,0,0,0,0.3844,0.3862,0.4032,0.4019,0.4027,0.4045,0.4062,0.4126,0.4209,0.414,0.4145,0.4162,0.4287,0.4319,0.433,0.4429,0.4385,0.439,0.4395,0.4397,0.4572,0.4572,0,0,0,0,0,0,0.3826,0.3855,0.4028,0.4037,0.3939,0.4049,0.4068,0.4106,0.4209,0.4224,0.4162,0.4165,0.4308,0.4322,0.4335,0.44,0.4392,0.4398,0.4402,0.4571,0.4572,0.4573,0,0,0,0,0,0,0.3821,0.3841,0.4021,0.3947,0.3972,0.4054,0.4096,0.4109,0.4141,0.4226,0.4241,0.4179,0.4308,0.4326,0.4393,0.4406,0.4401,0.4407,0.457,0.4571,0.4572,0.4528,0,0,0,0,0,0,0.3814,0.3839,0.3857,0.3947,0.3975,0.4075,0.4096,0.4113,0.4152,0.4157,0.4246,0.426,0.4309,0.4383,0.4399,0.4415,0.4412,0.457,0.4571,0.4572,0.4528,0.4527,0.4526,0,0,0,0,0,0.3806,0.3838,0.3858,0.3878,0.4,0.4076,0.4092,0.4148,0.4153,0.4173,0.4228,0.4257,0.4402,0.4389,0.4408,0.4426,0.4569,0.4571,0.4572,0.4529,0.4527,0.4526,0,0,0,0,0,0,0.3748,0.3851,0.3874,0.3937,0.3997,0.4087,0.4114,0.4144,0.4204,0.4206,0.4273,0.4292,0.4354,0.4397,0.438,0.4479,0.4488,0.4494,0.4449,0.4448,0.4447,0.4435,0.4418,0,0,0,0,0,0.3742,0.3795,0.3883,0.3929,0.3959,0.4031,0.4066,0.4104,0.4169,0.4195,0.4255,0.4317,0.4377,0.4415,0.4475,0.4535,0.4556,0.4557,0.4556,0.4555,0.4559,0.4595,0.4597,0.4577,0.4577,0.4577,0,0,0.3731,0.3795,0.3823,0.392,0.3971,0.4025,0.4052,0.4107,0.4148,0.4204,0.427,0.4316,0.4391,0.4455,0.4486,0.4493,0.4569,0.4557,0.4555,0.456,0.4597,0.4599,0.46,0.4578,0.4578,0.4578,0,0,0.3739,0.3792,0.3837,0.3889,0.3966,0.4014,0.4025,0.4111,0.4144,0.4212,0.4256,0.4305,0.4407,0.4458,0.4498,0.4527,0.4557,0.4545,0.4538,0.4573,0.4575,0.4577,0.4588,0.4591,0.4549,0.4548,0.4548,0,0.3716,0.3798,0.3857,0.3911,0.3952,0.4006,0.4053,0.41,0.4193,0.422,0.4227,0.4356,0.441,0.4488,0.4495,0.4525,0.454,0.4535,0.457,0.4572,0.4575,0.4586,0.459,0.4546,0.4547,0.4547,0.4547,0,0.3767,0.3823,0.3851,0.3939,0.3984,0.4034,0.4102,0.414,0.4175,0.4222,0.4292,0.4359,0.4433,0.4455,0.4488,0.4538,0.454,0.4557,0.4567,0.4574,0.4586,0.4591,0.4544,0.4544,0.4545,0.4545,0,0,0.3741,0.3863,0.3872,0.3914,0.4004,0.4049,0.4102,0.4176,0.4208,0.4271,0.4318,0.4403,0.442,0.4465,0.4505,0.4536,0.4556,0.455,0.4553,0.4549,0.4616,0.4602,0.4606,0.4577,0.4578,0.4579,0.461,0,0.3762,0.3859,0.3914,0.3989,0.4043,0.4095,0.4142,0.4202,0.4249,0.4302,0.4353,0.4413,0.4431,0.4458,0.4491,0.4547,0.4571,0.4545,0.4622,0.4624,0.4601,0.4613,0.4598,0.4624,0.4615,0.4616,0.4616,0,0.3798,0.386,0.394,0.4026,0.4051,0.4091,0.4164,0.4214,0.4285,0.4316,0.4367,0.4408,0.4467,0.4473,0.4556,0.4537,0.4572,0.4604,0.4607,0.4616,0.462,0.4623,0.4634,0.4638,0.4624,0.4624,0.4623,0,0.3772,0.3876,0.3938,0.3972,0.4073,0.4101,0.4144,0.4215,0.4256,0.432,0.4347,0.4417,0.4455,0.4508,0.4567,0.4565,0.4644,0.4654,0.4673,0.4671,0.4687,0.4685,0.4704,0.4708,0.4708,0.4708,0.4708,0,0.379,0.3836,0.3928,0.3966,0.4021,0.4085,0.4137,0.4185,0.4248,0.4297,0.4346,0.4391,0.4466,0.452,0.4566,0.4629,0.4645,0.4673,0.4685,0.4669,0.4665,0.4692,0.4692,0.4709,0.4709,0.4709,0.4709,0,0.3769,0.3832,0.3903,0.3994,0.4018,0.4054,0.4132,0.4172,0.4221,0.4283,0.4301,0.4379,0.4446,0.451,0.4599,0.463,0.4692,0.4707,0.4668,0.4675,0.469,0.4687,0.4727,0.4736,0.4733,0.4733,0.4733,0,0.3776,0.3814,0.3909,0.3945,0.3988,0.4045,0.4088,0.4153,0.4196,0.428,0.4309,0.438,0.444,0.4544,0.4609,0.4678,0.4695,0.4704,0.4706,0.4689,0.4696,0.4693,0.4698,0.4703,0.4702,0.4702,0.4702,0,0.3782,0.3811,0.3871,0.3941,0.3991,0.4049,0.411,0.4137,0.4214,0.4259,0.4328,0.4375,0.4467,0.4536,0.4613,0.4659,0.4693,0.4701,0.4709,0.4693,0.4669,0.4683,0.4665,0.47,0.47,0.47,0.47,0.47,0.3776,0.3812,0.3885,0.395,0.4003,0.4058,0.41,0.4156,0.4214,0.4294,0.4329,0.4399,0.4471,0.4578,0.4623,0.4679,0.4687,0.4698,0.4702,0.4703,0.47,0.466,0.4693,0.4693,0.4694,0.4694,0.4694,0,0.3784,0.3834,0.3893,0.3977,0.4028,0.4057,0.4126,0.4167,0.4228,0.4292,0.435,0.443,0.4499,0.4569,0.4642,0.4673,0.4691,0.469,0.4688,0.4699,0.4688,0.4675,0.4675,0.4675,0.4675,0.4675,0.4675,0.4675,0.3795,0.3858,0.3897,0.3988,0.4038,0.4107,0.4144,0.4196,0.4248,0.4335,0.4392,0.4438,0.4505,0.4583,0.4647,0.4667,0.4691,0.4686,0.4709,0.4698,0.4699,0.47,0.4688,0.469,0.469,0.4715,0.4715,0.4715]}]]